{"data":{"norad_id":40128,"intl_designator":"2014-050A","name":"GSAT0201 (GALILEO 5)","alt_names":[],"object_type":"PAYLOAD","status":"ACTIVE","operator":null,"country":"ESA","launch_date":"2014-08-22","launch_site_code":"FRGUI","launch_vehicle":null,"mission":null,"orbit_class":"UNKNOWN","rcs_meters":4.1215,"size_class":null,"mass_kg":null,"dimensions":null,"purposes":["earth_obs","nav"],"wikipedia_slug":null,"has_3d_model":false,"image_url":null,"decayed_at":null,"tle_current":{"epoch":"2026-05-23T02:01:49.135008Z","epoch_age_seconds":239995,"freshness":"STALE","line1":"1 40128U 14050A   26143.08459647 -.00000079  00000+0  00000+0 0  9999","line2":"2 40128  48.9035 274.4648 1670806 178.4149 182.2129  1.85519899 77850","mean_motion":1.85519899,"eccentricity":0.1670806,"inclination_deg":48.9035,"raan_deg":274.4648,"arg_perigee_deg":178.4149,"mean_anomaly_deg":182.2129,"bstar":0,"rev_number":7785,"period_min":776.1970590551,"perigee_km":16924.826385787,"apogee_km":26273.805661033,"semimajor_km":27977.45302341,"source":"CELESTRAK","updated_at":"2026-05-25T13:38:24.052319Z"}}}